Location: Bouchavesnes-Bergen
(49.9859°N, 2.9203°E)
Time: 05:03:02
(UTC+00:00)

PSLV R/B - Pass Details

Date: 09 March 2021
Orbit: 594 x 628 km, 98.0° (Epoch: 11 April)

Event Time Altitude Azimuth Distance (km) Brightness Sun altitude
Rises 04:08:32 0° 13° (NNE) 2,926 7.5 -20.9°
Reaches altitude 10° 04:10:44 10° 13° (NNE) 2,016 6.6 -20.5°
Maximum altitude 04:15:08 85° 287° (WNW) 638 3.5 -19.8°
Enters shadow 04:17:26 28° 199° (SSW) 1,185 4.7 -19.5°
